Location: Go?cza
(50.3372°N, 19.9313°E)
Time: 23:59:23
(UTC+00:00)

Cosmos 2184 Rocket - Pass Details

Date: 23 May 2024
Orbit: 959 x 1000 km, 82.9° (Epoch: 18 June)

Event Time Altitude Azimuth Distance (km) Brightness Sun altitude
Exits shadow 01:21:57 - 176° (S) 3,430 6.4 -10.2°
Reaches altitude 10° 01:23:52 10° 174° (S) 2,708 5.9 -10.0°
Maximum altitude 01:30:00 65° 94° (E) 1,073 4.4 -9.4°
Drops below altitude 10° 01:36:14 10° 14° (NNE) 2,755 7.5 -8.8°
Sets 01:38:47 0° 12° (NNE) 3,714 8.2 -8.5°
